Theta_e
314 314 312 309 306 311 306 308 303 307 312 316 317 317 318 320 331 332 339 340 342 353 355 355 353 351 347 347 351 353 351 356
313 314 313 310 313 305 306 300 299 304 306 307 314 314 324 330 334 337 342 345 346 351 354 353 353 354 353 351 353 355 353 360
312 309 308 308 307 309 310 307 301 300 303 317 316 323 326 333 338 338 342 345 348 350 353 352 352 354 352 352 347 354 357 360
307 312 314 313 310 310 304 304 307 306 305 320 322 325 328 335 338 341 342 346 346 348 350 351 352 354 354 351 348 355 356 356
304 309 312 309 311 312 311 310 306 302 305 323 325 329 331 335 339 341 344 344 345 347 346 349 350 354 353 350 354 355 355 353
301 306 309 307 308 310 310 306 307 307 310 322 325 326 329 332 340 338 341 344 344 344 345 349 351 356 354 353 354 353 352 350
309 309 309 308 308 308 307 309 306 309 314 322 326 328 330 330 338 340 339 340 342 341 344 349 349 355 354 353 352 353 353 348
308 309 309 307 309 309 309 309 310 310 311 325 328 334 332 332 331 337 340 340 342 342 345 347 347 347 351 352 352 353 353 347
304 308 308 304 307 308 309 311 312 311 322 327 327 332 334 335 334 332 335 340 343 344 344 348 347 346 345 351 356 357 354 350
306 308 298 313 321 315 314 320 322 325 325 327 329 335 337 340 339 339 339 338 340 343 345 347 349 350 353 353 356 355 353 350
304 303 310 316 318 317 317 319 325 325 326 327 329 336 334 338 341 341 343 344 346 351 347 347 347 351 352 355 355 353 351 352
306 301 298 315 322 327 326 315 326 328 327 326 328 320 328 336 340 343 343 344 346 351 357 357 356 352 355 354 353 349 352 354
302 301 307 317 321 324 310 314 325 327 327 327 325 328 332 333 335 340 340 345 346 348 348 352 355 354 351 354 351 352 355 355
304 301 298 322 321 318 323 326 326 327 327 327 328 328 329 331 332 334 336 340 343 346 347 347 345 352 351 353 355 357 355 354
315 312 321 323 321 323 326 326 325 325 326 327 327 326 327 328 330 331 334 337 340 340 344 348 344 343 344 350 356 354 353 354
316 317 318 320 323 324 324 324 325 326 326 328 326 327 328 330 330 332 333 334 337 338 341 342 347 346 347 349 352 353 351 352
316 316 317 320 321 323 324 325 325 326 326 326 327 327 327 329 330 330 334 336 337 338 339 340 343 344 346 346 348 347 351 351
310 317 319 320 323 323 321 320 322 323 324 325 326 327 328 328 330 331 332 333 334 335 335 335 339 340 341 343 344 343 343 343
317 322 322 322 321 320 320 321 323 324 325 324 327 329 328 327 330 327 331 332 330 332 332 334 334 331 333 341 342 343 340 340
Wind_Speed
27 20 19 18 18 20 20 17 12 12 11 9 5 10 8 6 7 5 8 9 12 15 14 16 15 17 12 6 7 2 2 4
18 15 20 22 15 12 11 16 16 13 12 8 9 5 14 11 10 7 9 11 11 14 14 13 14 14 11 7 6 1 2 2
16 12 19 15 15 14 17 15 12 13 7 12 10 13 10 9 9 10 11 11 10 11 11 9 12 12 11 9 7 5 4 6
17 17 17 19 20 20 14 15 13 13 12 10 10 10 7 10 10 10 11 13 11 10 10 12 13 14 12 12 9 7 7 7
18 16 15 11 16 16 20 17 19 13 5 10 10 12 7 9 11 10 11 12 11 10 10 10 9 9 11 9 10 11 10 10
16 19 15 22 19 17 16 12 14 16 9 14 10 8 9 8 10 11 12 12 10 10 9 10 8 10 10 12 11 12 12 10
17 21 16 19 21 23 23 18 17 6 20 17 8 11 10 5 7 9 10 12 11 10 9 10 10 10 12 11 11 11 10 12
13 18 16 19 13 19 22 19 18 12 12 13 4 12 12 10 5 6 7 10 10 8 11 12 12 13 12 12 12 11 10 9
15 18 14 18 18 14 10 15 8 5 14 13 12 13 11 10 9 6 1 6 8 9 9 12 12 12 14 12 11 11 8 9
12 6 17 7 9 4 4 12 5 12 11 7 11 16 13 11 10 10 9 7 6 3 9 8 11 14 14 13 11 10 10 12
13 15 7 8 5 7 9 10 7 6 7 8 8 16 14 12 12 6 8 9 9 11 9 9 11 12 13 11 11 12 13 12
11 14 14 12 11 5 1 12 7 6 9 9 6 8 9 12 10 12 9 7 9 8 11 11 9 12 12 11 12 13 13 11
12 12 5 8 12 3 9 8 7 9 10 12 10 9 9 11 12 11 11 11 8 7 10 10 5 9 14 12 13 13 12 10
12 15 14 12 2 4 6 7 9 10 10 8 9 10 10 11 11 11 11 11 14 10 6 6 13 4 4 7 6 5 8 9
8 7 6 12 12 9 7 9 9 9 9 9 10 11 10 10 12 12 12 10 10 10 12 8 9 13 11 9 4 5 4 6
5 9 10 9 11 11 9 8 8 9 9 9 10 8 11 11 11 11 11 12 11 11 9 7 10 8 7 7 5 5 5 5
12 10 11 11 10 8 7 7 7 7 7 9 9 10 10 10 10 9 10 11 11 12 10 9 6 7 8 7 9 7 7 7
11 7 12 12 9 8 9 10 9 8 10 9 7 7 7 8 7 8 9 13 10 11 11 11 10 7 5 7 6 6 7 7
9 10 12 10 9 8 7 7 8 8 10 9 9 6 9 5 6 8 10 10 12 12 13 14 12 11 13 11 9 6 6 6
Wind_Direction
214 211 223 242 212 241 265 275 278 273 217 204 225 240 241 189 99 101 109 135 149 146 171 178 182 191 198 197 194 57 56 180
186 211 224 234 237 233 241 261 277 244 246 256 165 216 78 94 105 130 136 137 153 160 165 177 182 187 199 178 174 302 1 146
204 191 226 204 237 254 262 237 263 249 252 49 76 75 87 94 123 148 143 142 148 152 138 177 172 176 182 166 158 220 166 173
226 204 226 240 209 223 248 246 274 302 297 91 100 106 89 112 134 145 146 143 148 144 154 163 168 177 170 180 194 183 163 182
243 241 203 241 251 230 221 244 268 270 285 74 91 82 85 130 140 148 141 148 150 156 169 162 168 160 159 170 191 168 180 189
248 231 226 199 228 248 246 249 235 249 214 124 93 82 87 148 148 158 160 158 165 174 183 162 165 156 155 166 186 174 182 182
247 271 278 266 211 216 236 233 253 306 59 54 56 78 73 90 148 163 173 169 169 188 188 170 174 167 167 176 182 183 197 182
261 253 252 258 257 213 218 217 235 236 118 113 104 75 67 59 104 162 181 184 169 192 188 190 187 189 181 183 186 186 201 190
243 236 238 240 243 248 240 213 261 352 89 113 96 77 58 51 46 27 189 201 191 179 202 201 198 197 197 190 188 193 180 171
276 300 222 80 6 309 35 56 42 92 104 87 101 90 66 50 43 22 10 6 339 235 191 216 204 190 191 190 190 194 185 193
271 182 165 145 167 179 161 105 23 88 72 61 109 122 66 44 44 18 23 352 332 312 300 210 218 206 205 188 187 203 199 199
273 277 269 36 88 78 88 136 71 47 45 18 359 206 55 27 44 8 39 22 349 304 300 299 195 202 199 199 196 204 205 197
235 262 261 92 318 298 203 75 54 44 38 40 54 43 27 17 14 9 4 5 355 358 353 343 300 205 190 197 203 204 206 196
233 255 243 8 155 347 56 74 43 58 47 55 53 40 25 14 3 357 354 353 343 338 10 358 3 137 215 214 202 205 207 190
4 57 63 62 72 67 47 64 53 55 55 40 40 32 21 14 4 358 351 344 332 328 331 11 90 56 321 313 348 216 211 203
162 104 91 91 89 78 66 64 50 40 44 41 29 25 20 21 11 357 349 337 326 320 321 340 13 3 329 312 309 275 242 215
89 114 118 85 68 67 82 58 44 43 35 21 40 14 15 26 16 358 346 349 339 330 328 356 345 339 335 345 323 275 249 227
95 108 81 92 76 49 50 35 22 15 19 15 23 347 17 25 9 9 2 5 354 348 353 356 343 343 338 329 317 299 282 243
104 90 90 97 93 56 54 41 12 38 36 22 28 15 4 6 12 6 32 25 23 11 11 21 19 20 5 346 329 293 288 320